Flag for Mexico Weather past 2 weeks in Campeche, Campeche, Mexico

Now
102 °F

Scattered clouds.


Feels Like: 110 °F
Forecast: 82 / 92 °F
Wind: 5 mph from Southwest

Location: Aerop. Internacional Merida - Yuc

Current Time: Apr 28, 2015 at 2:29:38 PM

Latest Report: Apr 28, 2015 at 1:46 PM


Visibility: 7 mi

Pressure: 29.64 "Hg

Humidity: 35%

Dew point: 70 °F

Location of CampecheLocation

Historic Weather in Campeche — Graph

°F

Campeche temperature yesterday

Maximum temperature yesterday: 108 °F (at 3:45 PM)
Minimum temperature yesterday: 75 °F (at 4:51 AM)
Average temperature yesterday: 87 °F

Past Weeks' High & Low Weather Summary

 TemperatureHumidityPressure
High108 °F (Apr 25, 3:48 PM)94% (Apr 15, 6:47 AM)30.04 "Hg (Apr 15, 6:47 AM)
Low73 °F (Apr 15, 6:47 AM)19% (Apr 26, 4:45 PM)29.56 "Hg (Apr 27, 4:45 PM)
Average87 °F60%29.83 "Hg
* Reported Apr 13 1:46 PM — Apr 28 12:48 PM, Campeche, Weather by CustomWeather, © 2015

Note: Actual official high and low records may vary slightly from our data, if they occured in-between our weather recording intervals... More about our weather records

Advertising

Campeche weather history for previous 24 hours

 ConditionsComfort  
Time TempWeatherWind HumidityBarometerVisibility
12:48 PM
Tue, Apr 28
102 °FPassing clouds.3 mph37%29.67 "Hg7 mi
11:45 AM99 °FPassing clouds.7 mph42%29.70 "Hg7 mi
10:50 AM95 °FPassing clouds.9 mph47%29.72 "Hg7 mi
8:47 AM86 °FPassing clouds.14 mph70%29.71 "Hg5 mi
7:50 AM81 °FScattered clouds.13 mph79%29.71 "Hg5 mi
6:47 AM79 °FHaze.9 mph84%29.69 "Hg3 mi
6:18 AM79 °FHaze.9 mph84%29.68 "Hg3 mi
5:46 AM81 °FPassing clouds.9 mph79%29.67 "Hg5 mi
4:45 AM81 °FClear.8 mph79%29.67 "Hg5 mi
3:46 AM81 °FClear.8 mph79%29.66 "Hg5 mi
2:44 AM82 °FClear.6 mph70%29.65 "Hg5 mi
1:45 AM84 °FClear.7 mph62%29.67 "Hg5 mi
12:48 AM84 °FClear.9 mph62%29.67 "Hg5 mi
11:46 PM
Mon, Apr 27
86 °FClear.6 mph55%29.69 "Hg7 mi
10:44 PM88 °FClear.6 mph55%29.68 "Hg6 mi
6:45 PM95 °FPassing clouds.9 mph44%29.61 "Hg7 mi
4:45 PM102 °FScattered clouds.12 mph37%29.56 "Hg7 mi
3:45 PM108 °FScattered clouds.7 mph23%29.60 "Hg7 mi
2:46 PM104 °FPassing clouds.8 mph28%29.58 "Hg7 mi
Weather by CustomWeather, © 2015

See weather overviewHow to use our weather pages